Location: Newark
(30.0333°N, 31.2167°E)
Time: 15:55:20
(UTC+00:00)

Vanguard 3 - Pass Details

Date: 21 January 2020
Orbit: 508 x 3263 km, 33.3° (Epoch: 21 February)

Event Time Altitude Azimuth Distance (km) Brightness Sun altitude
Rises 16:27:22 0° 247° (WSW) 7,142 13.8 -14.2°
Reaches altitude 10° 16:32:05 10° 247° (WSW) 6,190 13.0 -15.2°
Maximum altitude 16:52:15 86° 161° (SSE) 2,865 9.8 -19.4°
Enters shadow 17:02:01 28° 75° (ENE) 3,635 9.8 -21.5°
